This is the latest recevied weather packets stored in our database for station/object IZ8QAD-4. If no packets are shown the sender has not sent any weather packets the latest 10 day(s).
| Time | Temp. | Humidity | Pressure | Rain* | Wind** | Luminosity | Snow |
|---|---|---|---|---|---|---|---|
| 1777848393 | 23.33° C | 36% | 972 hPa | - | - | - | - |
| 1777846593 | 23.33° C | 36% | 972.1 hPa | - | - | - | - |
| 1777844792 | 23.33° C | 36% | 971.9 hPa | - | - | - | - |
| 1777842992 | 23.33° C | 36% | 971.8 hPa | - | - | - | - |
| 1777841191 | 23.33° C | 35% | 971.7 hPa | - | - | - | - |
| 1777839391 | 23.33° C | 36% | 971.6 hPa | - | - | - | - |
| 1777837594 | 23.33° C | 36% | 971.4 hPa | - | - | - | - |
| 1777835794 | 23.33° C | 36% | 971.2 hPa | - | - | - | - |
| 1777833993 | 23.33° C | 36% | 971 hPa | - | - | - | - |
| 1777832192 | 22.78° C | 36% | 970.9 hPa | - | - | - | - |
| 1777830392 | 22.78° C | 36% | 970.5 hPa | - | - | - | - |
| 1777828592 | 22.78° C | 36% | 970.5 hPa | - | - | - | - |
| 1777826792 | 22.78° C | 36% | 970.5 hPa | - | - | - | - |
| 1777824991 | 22.78° C | 35% | 970.5 hPa | - | - | - | - |
| 1777823191 | 22.78° C | 34% | 970.5 hPa | - | - | - | - |
| 1777821390 | 22.78° C | 31% | 970.5 hPa | - | - | - | - |
| 1777819590 | 23.33° C | 31% | 970.4 hPa | - | - | - | - |
| 1777817790 | 23.33° C | 30% | 970.4 hPa | - | - | - | - |
| 1777815992 | 23.33° C | 29% | 970.6 hPa | - | - | - | - |
| 1777814192 | 23.33° C | 29% | 970.5 hPa | - | - | - | - |
| 1777812391 | 23.89° C | 29% | 970.7 hPa | - | - | - | - |
| 1777810591 | 23.89° C | 30% | 970.9 hPa | - | - | - | - |
| 1777808791 | 23.89° C | 31% | 971.1 hPa | - | - | - | - |
| 1777806991 | 24.44° C | 31% | 971.2 hPa | - | - | - | - |
| 1777805190 | 25° C | 31% | 971.4 hPa | - | - | - | - |
* Rain since midnight (hover to see other rain measurements)
** Current wind speed in m/s (hover to see current wind gust speed)